GW1230 Weather Reports


Display with metric or nautical units.
time (UTC)temp
F
wind
direction
speed
MPH
gust
MPH
rain 1hr
in
rain 24hr
in
rain mn
in
humidity
%
barometer
mb
20260901205320 69 222 11.0 14.0 0.00 0.00 0.00 71 1009.8
20260901204815 70 160 7.0 8.0 0.00 0.00 0.00 67 1009.5
20260901204312 70 228 5.0 6.0 0.00 0.00 0.00 69 1009.6
20260901203811 71 255 0.0 0.0 0.00 0.00 0.00 67 1009.6
20260901203306 71 176 3.0 5.0 0.00 0.00 0.00 68 1009.8
20260901202800 70 186 12.0 16.0 0.00 0.00 0.00 67 1009.6
20260901202255 71 261 4.0 5.0 0.00 0.00 0.00 68 1009.7
20260901201751 71 186 7.0 9.0 0.00 0.00 0.00 66 1009.7
20260901201250 70 217 7.0 10.0 0.00 0.00 0.00 68 1009.6
20260901200744 69 206 11.0 13.0 0.00 0.00 0.00 69 1009.8
20260901200240 69 221 7.0 10.0 0.00 0.00 0.00 71 1009.7
20260901195738 69 193 13.0 17.0 0.00 0.00 0.00 70 1009.9
20260901195232 70 253 5.0 7.0 0.00 0.00 0.00 69 1009.9
20260901194727 69 187 11.0 14.0 0.00 0.00 0.00 69 1009.9
20260901194217 68 212 6.0 10.0 0.00 0.00 0.00 71 1009.7
20260901193713 68 208 8.0 9.0 0.00 0.00 0.00 72 1009.7
20260901193212 68 185 12.0 15.0 0.00 0.00 0.00 71 1009.8
20260901192707 69 208 14.0 18.0 0.00 0.00 0.00 70 1010.1
20260901192202 68 178 4.0 5.0 0.00 0.00 0.00 72 1010.0
20260901191658 68 187 9.0 13.0 0.00 0.00 0.00 72 1010.1
20260901191154 67 186 11.0 13.0 0.00 0.00 0.00 74 1009.9
20260901190650 68 214 11.0 13.0 0.00 0.00 0.00 73 1010.1
20260901190148 68 223 6.0 7.0 0.00 0.00 0.00 73 1009.9
20260901185648 67 271 7.0 11.0 0.00 0.00 0.00 74 1009.9
20260901185145 67 201 5.0 8.0 0.00 0.00 0.00 75 1010.1
20260901184643 67 178 11.0 15.0 0.00 0.00 0.00 76 1010.4
20260901184137 66 244 4.0 6.0 0.00 0.00 0.00 76 1010.1
20260901183632 66 190 5.0 7.0 0.00 0.00 0.00 76 1009.9
20260901183127 65 231 4.0 7.0 0.00 0.00 0.00 79 1010.0
20260901182623 66 205 6.0 7.0 0.00 0.00 0.00 76 1010.1
20260901182122 65 242 3.0 5.0 0.00 0.00 0.00 77 1010.0
20260901181622 65 221 5.0 7.0 0.00 0.00 0.00 79 1010.1
20260901181122 64 242 1.0 2.0 0.00 0.00 0.00 80 1010.1
20260901180616 64 264 1.0 1.0 0.00 0.00 0.00 80 1010.1
20260901180110 64 225 3.0 5.0 0.00 0.00 0.00 81 1010.2
20260901175609 63 250 5.0 7.0 0.00 0.00 0.00 82 1009.8
20260901175104 63 243 6.0 9.0 0.00 0.00 0.00 82 1010.0
20260901174559 63 259 2.0 3.0 0.00 0.00 0.00 83 1009.9
20260901174055 63 180 7.0 9.0 0.00 0.00 0.00 82 1009.8
20260901173550 62 253 5.0 8.0 0.00 0.00 0.00 84 1009.9
20260901173046 62 191 4.0 5.0 0.00 0.00 0.00 85 1009.8
20260901172541 61 201 12.0 14.0 0.00 0.00 0.00 85 1009.9
20260901172039 61 196 12.0 14.0 0.00 0.00 0.00 86 1009.9
20260901171539 61 187 11.0 13.0 0.00 0.00 0.00 86 1010.0
20260901171038 61 193 6.0 7.0 0.00 0.00 0.00 86 1009.8
20260901170537 61 203 10.0 11.0 0.00 0.00 0.00 86 1009.8
20260901170033 60 181 6.0 7.0 0.00 0.00 0.00 87 1010.0
20260901165532 60 168 8.0 10.0 0.00 0.00 0.00 87 1010.0
20260901165028 60 167 7.0 9.0 0.00 0.00 0.00 88 1009.9
20260901164523 60 190 7.0 9.0 0.00 0.00 0.00 88 1009.9
20260901164018 60 203 12.0 14.0 0.00 0.00 0.00 88 1010.0
20260901163514 60 177 12.0 16.0 0.00 0.00 0.00 88 1010.0
20260901163012 60 139 5.0 6.0 0.00 0.00 0.00 88 1009.8
20260901162508 60 182 9.0 11.0 0.00 0.00 0.00 89 1009.9
20260901162007 60 159 8.0 8.0 0.00 0.00 0.00 89 1010.0
20260901161507 60 179 6.0 7.0 0.00 0.00 0.00 89 1010.0
20260901161001 59 174 5.0 6.0 0.00 0.00 0.00 90 1010.1
20260901160457 59 172 4.0 5.0 0.00 0.00 0.00 90 1010.3
20260901155956 59 181 10.0 11.0 0.00 0.00 0.00 90 1010.1
20260901155456 59 125 9.0 13.0 0.00 0.00 0.00 90 1009.9
20260901154952 59 180 4.0 6.0 0.00 0.00 0.00 90 1010.2
20260901154452 59 189 11.0 13.0 0.00 0.00 0.00 90 1010.1
20260901153947 59 189 4.0 6.0 0.00 0.00 0.00 91 1010.2
20260901153441 59 191 5.0 6.0 0.00 0.00 0.00 91 1010.3
20260901152940 59 212 2.0 2.0 0.00 0.00 0.00 91 1010.3
20260901152435 59 222 5.0 6.0 0.00 0.00 0.00 92 1010.1
20260901151935 59 228 3.0 3.0 0.00 0.00 0.00 92 1010.3
20260901151430 58 201 4.0 7.0 0.00 0.00 0.00 92 1010.3
20260901150929 58 190 5.0 6.0 0.00 0.00 0.00 93 1010.3
20260901150427 58 199 5.0 6.0 0.00 0.00 0.00 93 1010.3
20260901145924 58 214 6.0 7.0 0.00 0.00 0.00 94 1010.1
20260901145419 58 157 3.0 5.0 0.00 0.00 0.00 94 1010.1
20260901144914 58 183 4.0 5.0 0.00 0.00 0.00 94 1010.1
20260901144409 57 234 0.0 0.0 0.00 0.00 0.00 94 1010.0
20260901143905 57 220 0.0 0.0 0.00 0.00 0.00 94 1010.1
20260901143401 57 239 3.0 5.0 0.00 0.00 0.00 94 1010.0
20260901142857 57 262 1.0 1.0 0.00 0.00 0.00 95 1010.1
20260901142356 57 228 2.0 2.0 0.00 0.00 0.00 95 1010.1
20260901141851 57 261 3.0 3.0 0.00 0.00 0.00 95 1010.1
20260901141346 57 264 0.0 0.0 0.00 0.00 0.00 95 1009.9
20260901140845 57 249 7.0 9.0 0.00 0.00 0.00 95 1009.8
20260901140343 57 251 3.0 3.0 0.00 0.00 0.00 94 1009.8
20260901135838 57 270 1.0 3.0 0.00 0.00 0.00 94 1009.6
20260901135334 57 236 2.0 2.0 0.00 0.00 0.00 94 1010.0
20260901134829 57 247 2.0 3.0 0.00 0.00 0.00 94 1010.0
20260901134325 57 268 3.0 5.0 0.00 0.00 0.00 93 1009.9
20260901133819 57 281 10.0 13.0 0.00 0.00 0.00 92 1009.8
20260901133318 58 229 7.0 9.0 0.00 0.00 0.00 90 1009.8
20260901132817 58 267 3.0 5.0 0.00 0.00 0.00 88 1009.8
20260901132312 58 254 1.0 2.0 0.00 0.00 0.00 86 1009.6
20260901131806 58 268 1.0 1.0 0.00 0.00 0.00 86 1009.4
20260901131306 58 243 3.0 3.0 0.00 0.00 0.00 86 1009.4
20260901130800 59 280 0.0 0.0 0.00 0.00 0.00 86 1009.5
20260901130255 59 257 0.0 0.0 0.00 0.00 0.00 87 1009.4
20260901125752 58 268 0.0 0.0 0.00 0.00 0.00 88 1009.4
20260901125247 58 279 0.0 0.0 0.00 0.00 0.00 89 1009.4
20260901124742 58 308 0.0 0.0 0.00 0.00 0.00 89 1009.1
20260901124237 58 280 0.0 0.0 0.00 0.00 0.00 89 1009.2
20260901123736 58 291 0.0 0.0 0.00 0.00 0.00 90 1009.4
20260901123231 58 281 0.0 0.0 0.00 0.00 0.00 90 1009.3
20260901122730 57 279 0.0 0.0 0.00 0.00 0.00 90 1009.2
20260901122225 57 280 0.0 0.0 0.00 0.00 0.00 90 1009.3
20260901121719 57 279 0.0 0.0 0.00 0.00 0.00 90 1009.2
20260901121214 57 279 0.0 0.0 0.00 0.00 0.00 90 1009.0
20260901120714 57 289 0.0 0.0 0.00 0.00 0.00 90 1009.0
20260901120209 57 277 0.0 0.0 0.00 0.00 0.00 90 1009.0
20260901115704 57 281 0.0 0.0 0.00 0.00 0.00 90 1009.1
20260901115200 57 284 0.0 0.0 0.00 0.00 0.00 90 1009.0
20260901114657 56 280 0.0 0.0 0.00 0.00 0.00 91 1009.1
20260901114156 56 291 0.0 0.0 0.00 0.00 0.00 91 1008.9
20260901113655 56 285 0.0 0.0 0.00 0.00 0.00 91 1008.8
20260901113151 56 284 0.0 0.0 0.00 0.00 0.00 91 1009.0
20260901112644 56 292 0.0 0.0 0.00 0.00 0.00 90 1009.1
20260901112144 56 292 0.0 0.0 0.00 0.00 0.00 90 1009.0
20260901111644 56 292 0.0 0.0 0.00 0.00 0.00 90 1009.1
20260901111138 57 293 0.0 0.0 0.00 0.00 0.00 90 1009.0
20260901110633 57 279 0.0 0.0 0.00 0.00 0.00 89 1008.9
20260901110128 57 286 0.0 0.0 0.00 0.00 0.00 90 1009.0
20260901105625 57 290 0.0 0.0 0.00 0.00 0.00 90 1008.9
20260901105124 57 293 0.0 0.0 0.00 0.00 0.00 89 1008.8
20260901104620 57 290 0.0 0.0 0.00 0.00 0.00 89 1009.0
20260901104115 57 273 0.0 0.0 0.00 0.00 0.00 89 1009.0
20260901103609 57 286 0.0 0.0 0.00 0.00 0.00 89 1008.9
20260901103105 57 282 0.0 0.0 0.00 0.00 0.00 88 1009.0
20260901102604 57 283 0.0 0.0 0.00 0.00 0.00 88 1009.2
20260901102059 57 285 0.0 0.0 0.00 0.00 0.00 88 1009.1
20260901101555 57 279 0.0 0.0 0.00 0.00 0.00 87 1009.2
20260901101054 57 274 0.0 0.0 0.00 0.00 0.00 87 1008.9
20260901100548 57 283 0.0 0.0 0.00 0.00 0.00 88 1008.9
20260901100048 57 290 0.0 0.0 0.00 0.00 0.00 87 1008.7
20260901095546 57 293 0.0 0.0 0.00 0.00 0.00 87 1008.7
20260901095044 57 283 0.0 0.0 0.00 0.00 0.00 87 1008.6
20260901094540 58 279 0.0 0.0 0.00 0.00 0.00 86 1008.7
20260901094039 58 285 0.0 0.0 0.00 0.00 0.00 86 1008.5
20260901093534 58 288 0.0 0.0 0.00 0.00 0.00 86 1008.9
20260901093028 58 289 0.0 0.0 0.00 0.00 0.00 86 1008.6
20260901092525 58 289 0.0 0.0 0.00 0.00 0.00 86 1008.8
20260901092020 58 296 0.0 0.0 0.00 0.00 0.00 86 1008.5
20260901091515 58 294 0.0 0.0 0.00 0.00 0.00 86 1008.7
20260901091010 58 285 0.0 1.0 0.00 0.00 0.00 86 1008.8
20260901090509 58 285 0.0 1.0 0.00 0.00 0.00 86 1008.6
20260901090006 59 268 2.0 2.0 0.00 0.00 0.00 86 1008.7
20260901085501 59 285 0.0 0.0 0.00 0.00 0.00 85 1008.8
20260901084957 59 292 1.0 2.0 0.00 0.00 0.00 84 1008.7
20260901084452 60 292 2.0 2.0 0.00 0.00 0.00 83 1008.8
20260901083948 60 274 0.0 0.0 0.00 0.00 0.00 81 1008.6
20260901083443 60 294 0.0 0.0 0.00 0.00 0.00 77 1008.7
20260901082941 60 294 0.0 0.0 0.00 0.00 0.00 77 1008.6
20260901082436 60 294 0.0 0.0 0.00 0.00 0.00 77 1008.6
20260901081931 60 306 0.0 0.0 0.00 0.00 0.00 77 1008.7
20260901081426 60 308 0.0 1.0 0.00 0.00 0.00 77 1008.5
20260901080921 61 299 0.0 0.0 0.00 0.00 0.00 77 1008.6
20260901080415 61 330 0.0 0.0 0.00 0.00 0.00 77 1008.5
20260901075910 60 317 0.0 0.0 0.00 0.00 0.00 77 1008.5
20260901075405 61 308 0.0 0.0 0.00 0.00 0.00 77 1008.7
20260901074904 61 297 0.0 0.0 0.00 0.00 0.00 76 1008.3
20260901074359 61 295 0.0 0.0 0.00 0.00 0.00 75 1008.7
20260901073855 61 304 0.0 1.0 0.00 0.00 0.00 76 1008.4
20260901073350 61 313 0.0 0.0 0.00 0.00 0.00 75 1008.6
20260901072846 62 316 0.0 0.0 0.00 0.00 0.00 75 1008.6
20260901072346 62 317 0.0 0.0 0.00 0.00 0.00 75 1008.4
20260901071841 61 320 0.0 1.0 0.00 0.00 0.00 75 1008.4
20260901071339 61 294 0.0 0.0 0.00 0.00 0.00 76 1008.5
20260901070838 62 293 0.0 0.0 0.00 0.00 0.00 76 1008.7
20260901070335 61 297 0.0 0.0 0.00 0.00 0.00 77 1008.6
20260901065833 62 296 0.0 0.0 0.00 0.00 0.00 76 1008.5
20260901065329 62 305 0.0 0.0 0.00 0.00 0.00 76 1008.2
20260901064824 62 293 0.0 0.0 0.00 0.00 0.00 76 1008.5
20260901064321 63 295 0.0 0.0 0.00 0.00 0.00 75 1008.7
20260901063818 62 300 0.0 0.0 0.00 0.00 0.00 74 1008.5
20260901063314 63 293 0.0 0.0 0.00 0.00 0.00 74 1008.4
20260901062810 62 292 0.0 0.0 0.00 0.00 0.00 75 1008.5
20260901062309 63 309 0.0 0.0 0.00 0.00 0.00 75 1008.5
20260901061801 63 307 0.0 0.0 0.00 0.00 0.00 75 1008.7
20260901061301 63 308 0.0 0.0 0.00 0.00 0.00 74 1008.6
20260901060756 63 308 0.0 0.0 0.00 0.00 0.00 74 1008.5
20260901060252 63 308 0.0 0.0 0.00 0.00 0.00 74 1008.6
20260901055746 63 308 0.0 0.0 0.00 0.00 0.00 74 1008.4
20260901055243 64 322 0.0 0.0 0.00 0.00 0.00 74 1008.6
20260901054739 64 319 0.0 0.0 0.00 0.00 0.00 74 1008.5
20260901054236 64 298 0.0 0.0 0.00 0.00 0.00 74 1008.6
20260901053731 64 289 0.0 0.0 0.00 0.00 0.00 74 1008.7
20260901053226 64 312 0.0 0.0 0.00 0.00 0.00 73 1008.9
20260901052722 64 301 0.0 0.0 0.00 0.00 0.00 73 1008.9
20260901052218 64 343 0.0 0.0 0.00 0.00 0.00 74 1008.7
20260901051716 64 324 0.0 0.0 0.00 0.00 0.00 74 1008.6
20260901051211 64 296 0.0 0.0 0.00 0.00 0.00 73 1008.7
20260901050706 65 283 0.0 0.0 0.00 0.00 0.00 72 1008.7
20260901050201 65 270 0.0 0.0 0.00 0.00 0.00 73 1008.7
20260901045656 64 284 0.0 0.0 0.00 0.00 0.00 73 1008.9
20260901045151 64 302 0.0 0.0 0.00 0.00 0.00 73 1008.9
20260901044646 64 304 0.0 0.0 0.00 0.00 0.00 72 1008.7
20260901044143 64 300 0.0 0.0 0.00 0.00 0.00 72 1008.5
20260901043638 65 295 0.0 0.0 0.00 0.00 0.00 71 1008.7
20260901043134 65 293 0.0 0.0 0.00 0.00 0.00 71 1008.8
20260901042632 65 286 0.0 0.0 0.00 0.00 0.00 71 1008.6
20260901042128 65 289 0.0 0.0 0.00 0.00 0.00 71 1008.8
20260901041624 65 312 0.0 0.0 0.00 0.00 0.00 70 1008.6
20260901041119 65 321 0.0 0.0 0.00 0.00 0.00 70 1008.6
20260901040618 66 317 0.0 0.0 0.00 0.00 0.00 70 1008.5
20260901040112 66 323 1.0 2.0 0.00 0.00 0.00 69 1008.5
20260901035610 66 320 0.0 0.0 0.00 0.00 0.00 69 1008.5
20260901035109 66 308 0.0 0.0 0.00 0.00 0.00 69 1008.3
20260901034609 66 319 0.0 1.0 0.00 0.00 0.00 68 1008.5
20260901034103 66 15 3.0 5.0 0.00 0.00 0.00 68 1008.2
20260901033602 66 312 0.0 0.0 0.00 0.00 0.00 69 1008.5
20260901033057 66 323 3.0 6.0 0.00 0.00 0.00 69 1008.3
20260901032556 66 342 5.0 7.0 0.00 0.00 0.00 69 1008.3
20260901032051 66 346 4.0 5.0 0.00 0.00 0.00 69 1008.2
20260901031546 66 313 2.0 3.0 0.00 0.00 0.00 70 1008.3
20260901031043 66 306 1.0 2.0 0.00 0.00 0.00 70 1008.3
20260901030542 66 343 3.0 3.0 0.00 0.00 0.00 70 1008.2
20260901030037 66 302 1.0 1.0 0.00 0.00 0.00 70 1008.1
20260901025536 66 0 6.0 8.0 0.00 0.00 0.00 69 1008.1
20260901025031 66 315 3.0 5.0 0.00 0.00 0.00 69 1008.1
20260901024526 66 311 2.0 2.0 0.00 0.00 0.00 69 1008.3
20260901024025 67 320 5.0 6.0 0.00 0.00 0.00 69 1008.3
20260901023519 67 357 2.0 3.0 0.00 0.00 0.00 69 1008.0
20260901023014 67 313 4.0 6.0 0.00 0.00 0.00 68 1008.1
20260901022509 67 261 5.0 8.0 0.00 0.00 0.00 68 1008.2
20260901022004 68 289 3.0 5.0 0.00 0.00 0.00 68 1008.2
20260901021500 68 322 2.0 2.0 0.00 0.00 0.00 67 1008.3
20260901020955 68 314 3.0 5.0 0.00 0.00 0.00 67 1008.3
20260901020450 68 329 3.0 5.0 0.00 0.00 0.00 67 1008.3
20260901015949 68 347 4.0 5.0 0.00 0.00 0.00 67 1008.2
20260901015446 68 334 7.0 9.0 0.00 0.00 0.00 66 1008.4
20260901014945 68 0 5.0 7.0 0.00 0.00 0.00 66 1008.3
20260901014441 68 321 3.0 3.0 0.00 0.00 0.00 66 1008.3
20260901013936 68 324 4.0 7.0 0.00 0.00 0.00 66 1008.3
20260901013432 68 2 7.0 9.0 0.00 0.00 0.00 66 1008.3
20260901012928 68 10 4.0 6.0 0.00 0.00 0.00 66 1008.3
20260901012422 68 283 4.0 7.0 0.00 0.00 0.00 66 1008.2
20260901011918 68 335 4.0 6.0 0.00 0.00 0.00 67 1008.4
20260901011414 68 338 4.0 7.0 0.00 0.00 0.00 67 1008.5
20260901010912 69 0 3.0 5.0 0.00 0.00 0.00 66 1008.3
20260901010407 69 308 3.0 5.0 0.00 0.00 0.00 66 1008.5
20260901005906 69 319 4.0 7.0 0.00 0.00 0.00 66 1008.3
20260901005401 69 274 0.0 1.0 0.00 0.00 0.00 66 1008.4
20260901004856 69 310 3.0 6.0 0.00 0.00 0.00 66 1008.4
20260901004355 69 344 5.0 8.0 0.00 0.00 0.00 65 1008.3
20260901003850 70 336 6.0 8.0 0.00 0.00 0.00 64 1008.4
20260901003345 70 325 6.0 10.0 0.00 0.00 0.00 64 1008.3
20260901002843 69 340 4.0 5.0 0.00 0.00 0.00 64 1008.3
20260901002343 70 307 3.0 5.0 0.00 0.00 0.00 63 1008.5
20260901001838 70 331 5.0 8.0 0.00 0.00 0.00 64 1008.5
20260901001333 71 312 8.0 14.0 0.00 0.00 0.00 62 1008.6
20260901000828 72 32 6.0 9.0 0.00 0.00 0.00 59 1008.7
20260901000324 70 301 3.0 3.0 0.00 0.00 0.00 61 1008.7
20260831235822 70 341 4.0 6.0 0.00 0.00 0.00 62 1008.7
20260831235318 71 331 7.0 9.0 0.00 0.00 0.00 60 1008.8
20260831234813 71 346 2.0 5.0 0.00 0.00 0.00 60 1008.8
20260831234313 70 352 2.0 7.0 0.00 0.00 0.00 62 1008.8
20260831233808 71 301 2.0 3.0 0.00 0.00 0.00 61 1008.9
20260831233304 72 55 7.0 13.0 0.00 0.00 0.00 60 1009.2
20260831232758 73 339 0.0 3.0 0.00 0.00 0.00 58 1009.0
20260831232255 72 2 3.0 7.0 0.00 0.00 0.00 60 1009.0
20260831231750 72 279 8.0 11.0 0.00 0.00 0.00 61 1009.1
20260831231247 71 350 3.0 3.0 0.00 0.00 0.00 61 1009.2
20260831230742 70 357 7.0 9.0 0.00 0.00 0.00 63 1009.2
20260831230237 70 332 6.0 9.0 0.00 0.00 0.00 63 1009.1
20260831225736 71 355 1.0 2.0 0.00 0.00 0.00 62 1009.0
20260831225232 71 270 1.0 3.0 0.00 0.00 0.00 60 1009.2
20260831224726 72 338 4.0 7.0 0.00 0.00 0.00 60 1009.4
20260831224222 75 339 1.0 7.0 0.00 0.00 0.00 56 1009.3
20260831223717 74 5 0.0 0.0 0.00 0.00 0.00 58 1009.6
20260831223214 73 24 5.0 8.0 0.00 0.00 0.00 59 1009.6
20260831222709 73 9 7.0 9.0 0.00 0.00 0.00 60 1009.5
20260831222205 72 277 1.0 1.0 0.00 0.00 0.00 62 1009.7
20260831221700 72 14 9.0 13.0 0.00 0.00 0.00 61 1009.4
20260831221155 71 259 3.0 5.0 0.00 0.00 0.00 61 1009.7
20260831220650 71 17 3.0 5.0 0.00 0.00 0.00 63 1009.8
20260831220145 73 341 3.0 8.0 0.00 0.00 0.00 60 1009.5
20260831215640 74 312 0.0 0.0 0.00 0.00 0.00 60 1009.8
20260831215136 72 314 6.0 8.0 0.00 0.00 0.00 61 1010.0
20260831214633 71 351 6.0 11.0 0.00 0.00 0.00 61 1009.9
20260831214129 72 351 4.0 7.0 0.00 0.00 0.00 61 1010.1
20260831213626 72 292 3.0 5.0 0.00 0.00 0.00 60 1010.1
20260831213121 71 8 3.0 5.0 0.00 0.00 0.00 62 1010.3
20260831212617 70 290 7.0 9.0 0.00 0.00 0.00 64 1010.4
20260831212113 71 343 5.0 10.0 0.00 0.00 0.00 63 1010.1
20260831211612 71 332 7.0 9.0 0.00 0.00 0.00 62 1010.5
20260831211112 71 342 8.0 10.0 0.00 0.00 0.00 62 1010.5
20260831210607 71 291 2.0 5.0 0.00 0.00 0.00 62 1010.4
20260831210103 73 353 7.0 11.0 0.00 0.00 0.00 60 1010.7
20260831205602 72 331 5.0 7.0 0.00 0.00 0.00 61 1010.6